SL-8 DEB, 21169

Orbit data source: Space-Track

SL-8 DEB, 21169 is space debris in LEO originally from a launch on Tue, 12 Feb 1991 UTC launched from the Plesetsk Missile And Space Complex (PKMTR). Debris objects in space refer to the collection of defunct objects orbiting the Earth. Examples of debris include non-operational satellites, rocket bodies, and fragments generated from explosions, collisions, or faulty payload assembly.

Loading next visibility...
Identifier
21169, 1991-009AG
Orbit
LEO
Country
Flag of CISCIS
Related business
Manufacturer
Unknown
Mission
Spacecraft
Bus & Motor
Unknown
Mass
Unknown
Launch date (UTC)
1991-02-12 (35 years ago)
Launch vehicle
Unknown
Launch site
Plesetsk Missile And Space Complex (PKMTR)
Object type
Payload
Rocket body
Debris
Shape & HBR
Unknown shape, 0.4 m
Radar Cross Section
Medium (>0.1 m² and <1 m²)

Expand to show TLE details & history
Last TLE update: 2 days ago

TLE from 2 days ago
0 SL-8 DEB
1 21169U 91009AG  26171.43879420 -.00000001  00000-0  12772-3 0  9996
2 21169  73.9973  51.5943 0132096 233.9112 300.8960 12.22907662575525
Epoch: 2026-06-20T10:31Z
TLE epoch observation values (Epoch: 2026-06-20T10:31:51.818Z)
Latitude
6.18449°
Longitude
163.20278°
Altitude
1,528.708 km
Speed
7.126 km/s
True Right ascension
15h 19m 17s
True Declination
6° 09' 05"
Sunlit
Object was in full shadow at epoch
Visualization orbit readout
Latitude
Unknown
Longitude
Unknown
Altitude
Unknown
Speed
Unknown
Apparent Right ascension
Unknown
Apparent Declination
Unknown
Sunlit
N/A
Visualization observer readout
Local Sidereal Time
03:45:27
Azimuth
Unknown
Elevation
Unknown
Doppler factor
Unknown
Orbital elements
Apogee altitude
1,682.865 km
Perigee altitude
1,472.676 km
Semi-major axis
7,955.908 km
Eccentricity
0.01321
Inclination
73.9973°
RAAN
51.5943°
Arg. of periapsis
233.9112°
True anomaly
299.5861°
Mean anomaly
300.896°
Eccentric anomaly
300.24215°
Mean motion
3.0585 °/min
Orbital period
117.7 mins
BSTAR
0.00012772
Loading maneuver chart data...
Computing Atmospheric mass density...
Loading historical data...
Loading historical data...
Loading historical data...
Loading historical data...
Loading historical data...
Loading historical data...
Loading historical data...

Documentation

Showing up to 5 results
|